TimeCDT,TemperatureF,Dew PointF,Humidity,Sea Level PressureIn,VisibilityMPH,Wind Direction,Wind SpeedMPH,Gust SpeedMPH,PrecipitationIn,Events,Conditions,WindDirDegrees,DateUTC
12:53 AM,78.1,70.0,76,29.96,10.0,East,3.5,-,N/A,,Clear,100,2013-07-04 05:53:00
1:53 AM,77.0,69.1,76,29.96,10.0,Calm,Calm,-,N/A,,Clear,0,2013-07-04 06:53:00
2:53 AM,73.0,68.0,84,29.96,10.0,Calm,Calm,-,N/A,,Clear,0,2013-07-04 07:53:00
3:53 AM,71.1,68.0,90,29.95,9.0,NNE,4.6,-,N/A,,Clear,20,2013-07-04 08:53:00
4:53 AM,70.0,66.9,90,29.95,7.0,NNE,4.6,-,N/A,,Clear,20,2013-07-04 09:53:00
5:53 AM,70.0,66.9,90,29.95,8.0,NNE,3.5,-,N/A,,Clear,20,2013-07-04 10:53:00
6:53 AM,70.0,66.0,87,29.96,7.0,Calm,Calm,-,N/A,,Clear,0,2013-07-04 11:53:00
7:27 AM,71.6,68.0,88,29.96,7.0,NNE,5.8,-,N/A,,Partly Cloudy,30,2013-07-04 12:27:00
7:53 AM,73.9,69.1,85,29.96,9.0,Calm,Calm,-,N/A,,Clear,0,2013-07-04 12:53:00
8:53 AM,82.9,71.1,67,29.98,10.0,Calm,Calm,-,N/A,,Clear,0,2013-07-04 13:53:00
9:53 AM,84.0,69.1,61,29.98,10.0,South,3.5,-,N/A,,Clear,190,2013-07-04 14:53:00
10:53 AM,86.0,69.1,57,29.99,10.0,SW,5.8,-,N/A,,Clear,220,2013-07-04 15:53:00
11:53 AM,87.1,69.1,55,29.98,10.0,SSW,10.4,-,N/A,,Clear,200,2013-07-04 16:53:00
12:53 PM,88.0,71.1,57,29.97,10.0,SW,11.5,-,N/A,,Clear,220,2013-07-04 17:53:00
1:53 PM,89.1,70.0,53,29.95,10.0,SSW,12.7,-,N/A,,Clear,200,2013-07-04 18:53:00
2:53 PM,89.1,69.1,52,29.93,10.0,South,10.4,20.7,N/A,,Clear,170,2013-07-04 19:53:00
3:53 PM,89.1,66.9,48,29.93,10.0,SSE,11.5,-,N/A,,Clear,160,2013-07-04 20:53:00
4:53 PM,87.1,69.1,55,29.92,10.0,South,10.4,-,N/A,,Partly Cloudy,170,2013-07-04 21:53:00
5:53 PM,88.0,69.1,53,29.90,10.0,SSE,12.7,20.7,N/A,,Clear,160,2013-07-04 22:53:00
6:53 PM,86.0,71.1,61,29.91,10.0,SE,13.8,-,N/A,,Clear,130,2013-07-04 23:53:00
7:53 PM,84.0,69.1,61,29.91,10.0,SE,11.5,-,N/A,,Clear,130,2013-07-05 00:53:00
8:53 PM,81.0,69.1,67,29.92,10.0,SE,5.8,-,N/A,,Clear,130,2013-07-05 01:53:00
10:53 PM,78.1,68.0,71,29.96,10.0,ESE,5.8,-,N/A,,Clear,110,2013-07-05 03:53:00
11:53 PM,77.0,69.1,76,29.96,10.0,ESE,4.6,-,N/A,,Clear,120,2013-07-05 04:53:00